Location: Unspecified
(49.9820°N, 20.4363°E)
Time: 04:38:16
(UTC+02:00)

Vanguard 3 - Pass Details

Date: 21 May 2026
Orbit: 507 x 3204 km, 33.3° (Epoch: 6 June)

Event Time Altitude Azimuth Distance (km) Brightness Sun altitude
Rises 17:10:34 0° 270° (W) 6,973 13.2 28.8°
Reaches altitude 10° 17:15:45 10° 262° (W) 6,083 13.3 28.0°
Maximum altitude 17:31:50 34° 208° (SSW) 4,220 11.4 25.4°
Drops below altitude 10° 17:45:24 10° 151° (SSE) 5,119 11.0 23.2°
Sets 17:49:19 0° 142° (SE) 5,787 11.1 22.6°
